Hourly Data Report for October 18, 2015

All times are specified in Local Standard Time (LST). Add 1 hour to adjust for Daylight Saving Time where and when it is observed.

CORAL HARBOUR A
NUNAVUT

64°11'36.000" N
83°21'34.000" W
62.20 m
2301002
71915
YZS

Download Data

Hourly Data (October 2015)
Hourly Data Report for October 18, 2015
Temp Definition
°C
Dew Point Temp Definition
°C
Rel Hum Definition
%
Wind Dir Definition
10's deg

Wind Spd Definition
km/h
Visibility Definition
km
Stn Press Definition
kPa
Hmdx Definition


Wind Chill Definition


Weather Definition


TIME
00:00 Legend Double Dagger -6.4 -9.5 79 34 9 24.1 100.57   -11 LegendNANA
01:00 Legend Double Dagger -6.6 -9.3 81 30 13 24.1 100.54   -12 Cloudy
02:00 Legend Double Dagger -7.2 -9.6 83 32 12 24.1 100.55   -13 LegendNANA
03:00 Legend Double Dagger -8.0 -10.1 85 27 13 24.1 100.54   -14 LegendNANA
04:00 Legend Double Dagger -8.6 -10.7 85 31 8 24.1 100.53   -13 Cloudy
05:00 Legend Double Dagger -7.9 -10.5 82 33 9 24.1 100.51   -12 LegendNANA
06:00 Legend Double Dagger -8.2 -10.3 85 32 12 24.1 100.48   -14 LegendNANA
07:00 Legend Double Dagger -7.9 -10.2 84 1 12 24.1 100.42   -13 Cloudy
08:00 Legend Double Dagger -8.1 -10.2 85 2 12 24.1 100.39   -14 LegendNANA
09:00 Legend Double Dagger -7.9 -10.9 79 7 12 24.1 100.34   -13 LegendNANA
10:00 Legend Double Dagger -7.5 -10.7 78 7 13 24.1 100.29   -13 Mostly Cloudy
11:00 Legend Double Dagger -6.4 -9.6 78 10 18 24.1 100.21   -13 LegendNANA
12:00 Legend Double Dagger -6.1 -8.7 82 10 18 24.1 100.16   -13 LegendNANA
13:00 Legend Double Dagger -6.2 -8.0 87 9 22 3.2 100.06   -13 Snow
14:00 Legend Double Dagger -5.7 -6.9 91 10 22 3.2 99.98   -13 Snow,Blowing Snow
15:00 Legend Double Dagger -5.4 -6.4 93 11 30 1.2 99.86   -14 Snow
16:00 Legend Double Dagger -5.3 -6.4 92 10 35 6.4 99.75   -14 Snow,Blowing Snow
17:00 Legend Double Dagger -5.0 -6.1 92 11 35 6.4 99.67   -14 Snow,Blowing Snow
18:00 Legend Double Dagger -4.7 -5.5 94 10 32 12.9 99.58   -13 Snow,Blowing Snow
19:00 Legend Double Dagger -4.3 -5.4 92 11 34 12.9 99.52   -13 Snow,Blowing Snow
20:00 Legend Double Dagger -4.3 -6.0 88 10 33 9.7 99.46   -12 Snow,Blowing Snow
21:00 Legend Double Dagger -4.6 -6.3 88 10 35 12.9 99.34   -13 Snow,Blowing Snow
22:00 Legend Double Dagger -4.4 -5.8 90 10 33 19.3 99.24   -13 Snow,Blowing Snow
23:00 Legend Double Dagger -4.2 -5.5 91 9 43 19.3 99.16   -13 Snow,Blowing Snow

Notes on Data Quality.

Legend

  • E = Estimated
  • M = Missing
  • NA = Not Available
  • ‡ = Partner data that is not subject to review by the National Climate Archives
Date modified: